FW6490 Weather Reports


time (UTC)temp
C
wind
direction
speed
KPH
gust
KPH
rain 1hr
cm
rain 24hr
cm
rain mn
cm
humidity
%
barometer
mb
20210122064155 5 283 0.0 0.0 0.00 0.00 0.00 89 1016.9
20210122063657 5 283 0.0 0.0 0.00 0.00 0.00 89 1016.9
20210122063153 5 283 0.0 0.0 0.00 0.00 0.00 89 1016.9
20210122062655 5 283 0.0 0.0 0.00 0.00 0.00 88 1016.9
20210122062150 6 283 0.0 0.0 0.00 0.00 0.00 88 1016.9
20210122061651 6 283 0.0 0.0 0.00 0.00 0.00 88 1016.9
20210122061148 6 283 0.0 0.0 0.00 0.00 0.00 90 1017.0
20210122060652 6 283 0.0 3.2 0.00 0.00 0.00 92 1017.0
20210122060148 6 283 0.0 3.2 0.00 0.00 0.00 89 1017.0
20210122055645 6 283 0.0 0.0 0.00 0.00 0.00 88 1016.9
20210122055146 6 283 0.0 0.0 0.00 0.00 0.00 88 1016.9
20210122054643 6 283 0.0 0.0 0.00 0.00 0.00 88 1016.9
20210122054142 6 283 0.0 0.0 0.00 0.00 0.00 87 1017.2
20210122053635 6 283 0.0 0.0 0.00 0.00 0.00 87 1017.2
20210122053138 6 283 0.0 0.0 0.00 0.00 0.00 87 1017.2
20210122052633 6 283 0.0 0.0 0.00 0.00 0.00 87 1017.2
20210122052137 6 283 0.0 0.0 0.00 0.00 0.00 86 1017.2
20210122051631 7 283 0.0 0.0 0.00 0.00 0.00 86 1017.3
20210122051129 7 283 0.0 0.0 0.00 0.00 0.00 85 1017.3
20210122050626 7 283 0.0 0.0 0.00 0.00 0.00 86 1017.3
20210122050126 7 283 0.0 0.0 0.00 0.00 0.00 86 1017.3
20210122045624 7 283 0.0 0.0 0.00 0.00 0.00 86 1017.2
20210122045121 7 283 0.0 0.0 0.00 0.00 0.00 87 1017.2
20210122044617 8 283 0.0 0.0 0.00 0.00 0.00 87 1017.2
20210122044114 8 283 0.0 0.0 0.00 0.00 0.00 88 1017.4
20210122043609 8 283 0.0 0.0 0.00 0.00 0.00 87 1017.4
20210122043108 8 283 0.0 0.0 0.00 0.00 0.00 86 1017.4
20210122042604 8 283 0.0 0.0 0.00 0.00 0.00 86 1017.5
20210122042104 8 283 0.0 0.0 0.00 0.00 0.00 85 1017.5
20210122041558 8 283 0.0 0.0 0.00 0.00 0.00 84 1017.5
20210122041103 8 283 0.0 0.0 0.00 0.00 0.00 83 1017.5
20210122040556 8 283 0.0 0.0 0.00 0.00 0.00 82 1017.5
20210122040101 8 283 0.0 0.0 0.00 0.00 0.00 83 1017.5
20210122035556 8 283 0.0 4.8 0.00 0.00 0.00 84 1017.2
20210122035047 8 283 0.0 4.8 0.00 0.00 0.00 84 1017.2
20210122034548 8 283 0.0 3.2 0.00 0.00 0.00 82 1017.2
20210122034041 8 283 0.0 0.0 0.00 0.00 0.00 82 1017.0
20210122033548 8 283 0.0 4.8 0.00 0.00 0.00 82 1017.0
20210122033039 8 283 0.0 4.8 0.00 0.00 0.00 81 1017.0
20210122032549 8 283 0.0 0.0 0.00 0.00 0.00 80 1017.0
20210122032040 9 283 0.0 0.0 0.00 0.00 0.00 80 1017.0
20210122031535 9 283 0.0 0.0 0.00 0.00 0.00 80 1017.0
20210122031039 10 283 0.0 0.0 0.00 0.00 0.00 79 1016.8
20210122030535 10 283 0.0 0.0 0.00 0.00 0.00 80 1016.8
20210122030036 10 283 0.0 0.0 0.00 0.00 0.00 80 1016.8
20210122025531 10 283 0.0 0.0 0.00 0.00 0.00 79 1016.8
20210122025028 10 283 0.0 0.0 0.00 0.00 0.00 79 1016.8
20210122024525 10 283 0.0 0.0 0.00 0.00 0.00 79 1016.8
20210122024027 10 283 0.0 0.0 0.00 0.00 0.00 79 1016.8
20210122023527 10 283 0.0 0.0 0.00 0.00 0.00 80 1016.8
20210122023028 10 283 0.0 0.0 0.00 0.00 0.00 82 1016.8
20210122022519 10 283 0.0 0.0 0.00 0.00 0.00 82 1016.5
20210122022024 11 283 0.0 0.0 0.00 0.00 0.00 83 1016.5
20210122021526 11 283 0.0 0.0 0.00 0.00 0.00 82 1016.6
20210122021041 11 283 0.0 8.0 0.00 0.00 0.00 82 1016.6
20210122020522 11 283 1.6 9.7 0.00 0.00 0.00 82 1016.6
20210122020026 11 283 4.8 16.1 0.00 0.00 0.00 82 1016.6
20210122015517 11 283 6.4 16.1 0.00 0.00 0.00 82 1016.6
20210122015012 11 281 4.8 12.9 0.00 0.00 0.00 82 1016.6
20210122014459 11 282 3.2 12.9 0.00 0.00 0.00 80 1016.6
20210122013959 11 296 1.6 9.7 0.00 0.00 0.00 79 1016.4
20210122013456 11 296 1.6 9.7 0.00 0.00 0.00 79 1016.4
20210122013000 12 296 3.2 9.7 0.00 0.00 0.00 79 1016.4
20210122012510 12 295 4.8 14.5 0.00 0.00 0.00 79 1016.2
20210122011954 12 297 6.4 16.1 0.00 0.00 0.00 79 1016.2
20210122011454 12 293 6.4 16.1 0.00 0.00 0.00 79 1016.2
20210122010952 12 280 8.0 14.5 0.00 0.00 0.00 78 1016.2
20210122010449 12 292 8.0 14.5 0.00 0.00 0.00 78 1016.2
20210122005949 13 298 6.4 12.9 0.00 0.00 0.00 76 1016.2
20210122005450 13 301 6.4 16.1 0.00 0.00 0.00 75 1016.1
20210122004950 13 302 4.8 16.1 0.00 0.00 0.00 73 1016.1
20210122004447 14 303 4.8 11.3 0.00 0.00 0.00 71 1016.1
20210122003947 14 304 6.4 11.3 0.00 0.00 0.00 69 1016.0
20210122003443 15 304 4.8 9.7 0.00 0.00 0.00 67 1016.0
20210122002945 15 304 3.2 9.7 0.00 0.00 0.00 63 1016.1
20210122002446 15 304 3.2 9.7 0.00 0.00 0.00 61 1016.0
20210122001942 16 304 1.6 9.7 0.00 0.00 0.00 56 1016.0
20210122001439 16 304 1.6 12.9 0.00 0.00 0.00 51 1016.0
20210122000941 17 304 3.2 12.9 0.00 0.00 0.00 49 1016.0
20210122000435 17 304 6.4 12.9 0.00 0.00 0.00 41 1016.0
20210121235929 17 304 8.0 12.9 0.00 0.00 0.00 43 1016.0
20210121235433 16 301 8.0 12.9 0.00 0.00 0.00 49 1016.1
20210121234935 17 301 6.4 12.9 0.00 0.00 0.00 48 1016.1
20210121234426 17 294 6.4 11.3 0.00 0.00 0.00 48 1016.1
20210121233926 17 300 6.4 11.3 0.00 0.00 0.00 52 1016.2
20210121233424 17 299 8.0 12.9 0.00 0.00 0.00 55 1016.2
20210121232920 16 298 9.7 16.1 0.00 0.00 0.00 56 1016.2
20210121232419 17 304 9.7 16.1 0.00 0.00 0.00 55 1016.1
20210121231917 17 299 8.0 17.7 0.00 0.00 0.00 54 1016.1
20210121231419 17 294 6.4 17.7 0.00 0.00 0.00 53 1016.1
20210121230914 18 272 8.0 17.7 0.00 0.00 0.00 51 1016.1
20210121230414 18 271 8.0 16.1 0.00 0.00 0.00 50 1016.1
20210121225918 19 310 6.4 14.5 0.00 0.00 0.00 47 1016.1
20210121225416 20 319 3.2 9.7 0.00 0.00 0.00 43 1016.2
20210121224918 21 319 4.8 11.3 0.00 0.00 0.00 40 1016.2
20210121224414 20 314 4.8 11.3 0.00 0.00 0.00 39 1016.2
20210121223913 20 315 4.8 11.3 0.00 0.00 0.00 39 1016.2
20210121223419 20 314 6.4 12.9 0.00 0.00 0.00 39 1016.2
20210121222910 20 314 6.4 12.9 0.00 0.00 0.00 40 1016.2
20210121222407 21 326 3.2 9.7 0.00 0.00 0.00 39 1016.2
20210121221905 21 334 3.2 9.7 0.00 0.00 0.00 36 1016.2
20210121221406 21 336 3.2 8.0 0.00 0.00 0.00 38 1016.2
20210121220904 21 337 3.2 9.7 0.00 0.00 0.00 40 1016.3
20210121220410 21 339 4.8 12.9 0.00 0.00 0.00 42 1016.3
20210121215901 20 317 4.8 12.9 0.00 0.00 0.00 42 1016.3
20210121215401 21 317 6.4 12.9 0.00 0.00 0.00 43 1016.3
20210121214905 20 314 6.4 12.9 0.00 0.00 0.00 41 1016.3
20210121214354 20 318 6.4 11.3 0.00 0.00 0.00 43 1016.3
20210121213851 20 306 6.4 11.3 0.00 0.00 0.00 42 1016.4
20210121213349 20 304 8.0 12.9 0.00 0.00 0.00 41 1016.4
20210121212850 20 306 8.0 12.9 0.00 0.00 0.00 38 1016.4
20210121212350 20 309 8.0 12.9 0.00 0.00 0.00 39 1016.7
20210121211847 20 313 8.0 14.5 0.00 0.00 0.00 41 1016.7
20210121211343 20 304 8.0 14.5 0.00 0.00 0.00 40 1016.7
20210121210852 20 300 8.0 12.9 0.00 0.00 0.00 40 1016.6
20210121210355 20 308 8.0 12.9 0.00 0.00 0.00 38 1016.6
20210121205845 21 333 6.4 14.5 0.00 0.00 0.00 36 1016.6
20210121205349 21 324 4.8 14.5 0.00 0.00 0.00 35 1016.8
20210121204845 21 311 4.8 14.5 0.00 0.00 0.00 32 1016.8
20210121204344 21 320 4.8 12.9 0.00 0.00 0.00 33 1016.8
20210121203844 21 317 6.4 14.5 0.00 0.00 0.00 30 1016.8
20210121203343 21 313 6.4 14.5 0.00 0.00 0.00 31 1016.8
20210121202845 21 308 6.4 16.1 0.00 0.00 0.00 32 1016.8
20210121202343 21 312 6.4 16.1 0.00 0.00 0.00 32 1017.0
20210121201838 21 311 6.4 12.9 0.00 0.00 0.00 30 1017.0
20210121201334 21 308 6.4 12.9 0.00 0.00 0.00 31 1017.0
20210121200831 22 313 4.8 12.9 0.00 0.00 0.00 30 1017.2
20210121200331 22 312 4.8 11.3 0.00 0.00 0.00 30 1017.2
20210121195829 21 303 4.8 11.3 0.00 0.00 0.00 29 1017.3
20210121195329 21 300 4.8 11.3 0.00 0.00 0.00 27 1017.3
20210121194826 22 297 3.2 11.3 0.00 0.00 0.00 27 1017.3
20210121194318 22 290 1.6 9.7 0.00 0.00 0.00 26 1017.6
20210121193827 23 301 1.6 6.4 0.00 0.00 0.00 26 1017.6
20210121193317 22 300 1.6 6.4 0.00 0.00 0.00 25 1017.6
20210121192817 22 300 1.6 4.8 0.00 0.00 0.00 26 1017.8
20210121192313 22 299 1.6 6.4 0.00 0.00 0.00 26 1017.8
20210121191816 22 299 1.6 8.0 0.00 0.00 0.00 28 1017.8
20210121191313 21 295 1.6 8.0 0.00 0.00 0.00 26 1018.0
20210121190809 21 289 1.6 6.4 0.00 0.00 0.00 25 1018.0
20210121190311 21 287 0.0 6.4 0.00 0.00 0.00 25 1018.0
20210121185808 21 285 0.0 4.8 0.00 0.00 0.00 25 1018.3
20210121185309 20 285 1.6 4.8 0.00 0.00 0.00 26 1018.2
20210121184807 20 283 0.0 4.8 0.00 0.00 0.00 26 1018.2
20210121184316 19 283 0.0 4.8 0.00 0.00 0.00 26 1018.2
20210121183758 18 283 0.0 4.8 0.00 0.00 0.00 24 1018.2
20210121183258 18 281 0.0 0.0 0.00 0.00 0.00 26 1018.2
20210121182752 18 281 0.0 1.6 0.00 0.00 0.00 25 1018.2
20210121182259 18 281 0.0 1.6 0.00 0.00 0.00 24 1018.2
20210121181752 17 281 0.0 0.0 0.00 0.00 0.00 28 1018.2
20210121181248 17 281 0.0 0.0 0.00 0.00 0.00 27 1018.3
20210121180749 16 281 0.0 0.0 0.00 0.00 0.00 29 1018.3
20210121180247 16 281 0.0 0.0 0.00 0.00 0.00 30 1018.3
20210121175747 16 281 0.0 0.0 0.00 0.00 0.00 28 1018.1
20210121175245 15 281 0.0 0.0 0.00 0.00 0.00 33 1018.1
20210121174741 15 281 0.0 0.0 0.00 0.00 0.00 35 1018.1
20210121174242 14 281 0.0 0.0 0.00 0.00 0.00 36 1018.3
20210121173741 13 281 0.0 0.0 0.00 0.00 0.00 35 1018.3
20210121173235 13 281 0.0 0.0 0.00 0.00 0.00 38 1018.3
20210121172739 13 281 0.0 0.0 0.00 0.00 0.00 38 1018.1
20210121172233 12 281 0.0 0.0 0.00 0.00 0.00 38 1018.1
20210121171732 11 281 0.0 0.0 0.00 0.00 0.00 40 1018.1
20210121171233 11 281 0.0 0.0 0.00 0.00 0.00 41 1018.0
20210121170730 11 281 0.0 0.0 0.00 0.00 0.00 42 1018.0
20210121170229 11 281 0.0 0.0 0.00 0.00 0.00 42 1018.0
20210121165735 10 281 0.0 0.0 0.00 0.00 0.00 41 1017.9
20210121165228 10 281 0.0 0.0 0.00 0.00 0.00 41 1017.9
20210121164726 10 281 0.0 0.0 0.00 0.00 0.00 43 1017.9
20210121164232 10 281 0.0 0.0 0.00 0.00 0.00 43 1017.8
20210121163723 10 281 0.0 0.0 0.00 0.00 0.00 43 1017.8
20210121163219 9 281 0.0 0.0 0.00 0.00 0.00 44 1017.8
20210121162716 8 281 0.0 0.0 0.00 0.00 0.00 45 1017.5
20210121162215 8 281 0.0 3.2 0.00 0.00 0.00 46 1017.5
20210121161715 8 281 0.0 3.2 0.00 0.00 0.00 46 1017.5
20210121161212 7 281 0.0 0.0 0.00 0.00 0.00 46 1017.5
20210121160712 7 281 0.0 0.0 0.00 0.00 0.00 48 1017.5
20210121160210 7 281 0.0 0.0 0.00 0.00 0.00 48 1017.5
20210121155708 7 281 0.0 0.0 0.00 0.00 0.00 48 1017.4
20210121155212 6 281 0.0 0.0 0.00 0.00 0.00 48 1017.4
20210121154712 6 281 0.0 0.0 0.00 0.00 0.00 48 1017.4
20210121154206 6 281 0.0 0.0 0.00 0.00 0.00 45 1017.4
20210121153705 6 281 0.0 0.0 0.00 0.00 0.00 48 1017.4
20210121153202 6 281 0.0 0.0 0.00 0.00 0.00 49 1017.4
20210121152659 6 281 0.0 0.0 0.00 0.00 0.00 49 1017.3
20210121152159 6 281 0.0 0.0 0.00 0.00 0.00 48 1017.3
20210121151701 6 281 0.0 0.0 0.00 0.00 0.00 47 1017.3
20210121151157 6 281 0.0 0.0 0.00 0.00 0.00 48 1017.1
20210121150655 6 281 0.0 0.0 0.00 0.00 0.00 48 1017.1
20210121150152 6 281 0.0 0.0 0.00 0.00 0.00 46 1017.1
20210121145654 6 281 0.0 0.0 0.00 0.00 0.00 46 1017.2
20210121145148 6 281 0.0 0.0 0.00 0.00 0.00 45 1017.2
20210121144651 6 281 0.0 0.0 0.00 0.00 0.00 45 1017.2
20210121144150 6 281 0.0 0.0 0.00 0.00 0.00 44 1017.1
20210121143646 6 281 0.0 0.0 0.00 0.00 0.00 45 1017.1
20210121143144 6 281 0.0 0.0 0.00 0.00 0.00 45 1017.1
20210121142639 6 281 0.0 0.0 0.00 0.00 0.00 46 1017.1
20210121142142 6 281 0.0 0.0 0.00 0.00 0.00 48 1017.1
20210121141636 6 281 0.0 0.0 0.00 0.00 0.00 47 1017.1
20210121141132 6 281 0.0 0.0 0.00 0.00 0.00 46 1017.1
20210121140629 7 281 0.0 0.0 0.00 0.00 0.00 44 1017.1
20210121140125 7 281 0.0 0.0 0.00 0.00 0.00 44 1017.2
20210121135627 7 281 0.0 1.6 0.00 0.00 0.00 44 1017.0
20210121135125 7 281 0.0 1.6 0.00 0.00 0.00 44 1017.0
20210121134625 8 281 0.0 1.6 0.00 0.00 0.00 42 1017.0
20210121134121 8 281 0.0 4.8 0.00 0.00 0.00 41 1017.1
20210121133620 7 281 0.0 4.8 0.00 0.00 0.00 39 1017.1
20210121133125 7 281 0.0 0.0 0.00 0.00 0.00 42 1017.1
20210121132618 7 281 0.0 0.0 0.00 0.00 0.00 41 1017.0
20210121132121 7 281 0.0 0.0 0.00 0.00 0.00 41 1017.0
20210121131617 8 281 0.0 0.0 0.00 0.00 0.00 39 1017.0
20210121131117 8 281 0.0 0.0 0.00 0.00 0.00 40 1017.0
20210121130620 8 281 0.0 0.0 0.00 0.00 0.00 41 1017.0
20210121130112 8 281 0.0 0.0 0.00 0.00 0.00 41 1017.0
20210121125609 8 281 0.0 1.6 0.00 0.00 0.00 40 1016.8
20210121125108 8 281 0.0 1.6 0.00 0.00 0.00 41 1016.8
20210121124606 8 281 0.0 0.0 0.00 0.00 0.00 41 1016.8
20210121124102 8 281 0.0 1.6 0.00 0.00 0.00 41 1016.8
20210121123611 8 281 0.0 1.6 0.00 0.00 0.00 38 1016.8
20210121123058 9 281 0.0 0.0 0.00 0.00 0.00 39 1016.8
20210121122556 9 281 0.0 0.0 0.00 0.00 0.00 38 1016.5
20210121122053 9 281 0.0 0.0 0.00 0.00 0.00 37 1016.5
20210121121553 10 281 0.0 0.0 0.00 0.00 0.00 35 1016.5
20210121121112 10 281 0.0 0.0 0.00 0.00 0.00 35 1016.5
20210121120726 10 281 0.0 0.0 0.00 0.00 0.00 34 1016.5
20210121120048 10 281 0.0 3.2 0.00 0.00 0.00 34 1016.5
20210121115556 10 281 1.6 6.4 0.00 0.00 0.00 33 1016.5
20210121115053 11 281 1.6 6.4 0.00 0.00 0.00 32 1016.5
20210121114541 11 281 3.2 9.7 0.00 0.00 0.00 32 1016.5
20210121114041 11 281 1.6 9.7 0.00 0.00 0.00 32 1016.5
20210121113534 11 281 1.6 8.0 0.00 0.00 0.00 32 1016.5
20210121113033 11 282 1.6 8.0 0.00 0.00 0.00 31 1016.5
20210121112533 11 282 3.2 9.7 0.00 0.00 0.00 31 1016.6
20210121112042 11 282 1.6 9.7 0.00 0.00 0.00 32 1016.6
20210121111534 11 281 0.0 3.2 0.00 0.00 0.00 31 1016.7
20210121111043 12 281 1.6 8.0 0.00 0.00 0.00 30 1017.0
20210121110532 12 281 3.2 8.0 0.00 0.00 0.00 28 1017.0
20210121110039 12 281 3.2 9.7 0.00 0.00 0.00 28 1017.0
20210121105543 13 281 1.6 9.7 0.00 0.00 0.00 28 1016.9
20210121105028 13 281 0.0 4.8 0.00 0.00 0.00 26 1016.9
20210121104531 13 281 0.0 4.8 0.00 0.00 0.00 25 1016.9
20210121104022 12 282 0.0 6.4 0.00 0.00 0.00 27 1017.0
20210121103526 12 282 0.0 6.4 0.00 0.00 0.00 27 1017.0
20210121103021 12 282 0.0 8.0 0.00 0.00 0.00 27 1017.0
20210121102524 12 282 0.0 8.0 0.00 0.00 0.00 26 1016.9
20210121102022 12 282 1.6 4.8 0.00 0.00 0.00 27 1016.9
20210121101522 12 282 1.6 8.0 0.00 0.00 0.00 27 1016.9
20210121101025 12 282 0.0 8.0 0.00 0.00 0.00 28 1016.7
20210121100517 12 279 0.0 3.2 0.00 0.00 0.00 28 1016.7
20210121100034 12 279 0.0 4.8 0.00 0.00 0.00 28 1016.7
20210121095511 13 279 0.0 4.8 0.00 0.00 0.00 28 1016.6
20210121095001 13 279 0.0 8.0 0.00 0.00 0.00 26 1016.6
20210121094509 13 279 1.6 8.0 0.00 0.00 0.00 25 1016.6
20210121093959 13 279 3.2 6.4 0.00 0.00 0.00 25 1016.5
20210121093455 14 279 3.2 6.4 0.00 0.00 0.00 24 1016.5
20210121092954 14 278 3.2 12.9 0.00 0.00 0.00 23 1016.5
20210121092454 13 278 3.2 12.9 0.00 0.00 0.00 24 1016.5
20210121091953 13 260 3.2 9.7 0.00 0.00 0.00 25 1016.5
20210121091449 13 259 3.2 8.0 0.00 0.00 0.00 26 1016.5
20210121090947 13 259 1.6 8.0 0.00 0.00 0.00 25 1016.6
20210121090443 13 259 3.2 8.0 0.00 0.00 0.00 26 1016.6
20210121085950 13 259 1.6 6.4 0.00 0.00 0.00 27 1016.6
20210121085446 13 259 3.2 8.0 0.00 0.00 0.00 27 1016.8
20210121084953 13 259 3.2 11.3 0.00 0.00 0.00 26 1016.8
20210121084446 12 259 1.6 11.3 0.00 0.00 0.00 30 1016.8
20210121083942 12 257 3.2 9.7 0.00 0.00 0.00 31 1016.6
20210121083446 11 257 3.2 9.7 0.00 0.00 0.00 30 1016.6
20210121082937 11 256 3.2 6.4 0.00 0.00 0.00 34 1016.5
20210121082437 10 256 3.2 6.4 0.00 0.00 0.00 36 1016.5
20210121081935 10 256 3.2 6.4 0.00 0.00 0.00 37 1016.5
20210121081429 10 256 1.6 6.4 0.00 0.00 0.00 37 1016.5
20210121080926 10 256 0.0 6.4 0.00 0.00 0.00 39 1016.7
20210121080423 10 256 0.0 6.4 0.00 0.00 0.00 39 1016.7
20210121075927 10 256 1.6 4.8 0.00 0.00 0.00 39 1016.7
20210121075418 10 256 1.6 6.4 0.00 0.00 0.00 40 1016.7
20210121074913 10 256 1.6 8.0 0.00 0.00 0.00 41 1016.7
20210121074412 10 256 1.6 8.0 0.00 0.00 0.00 42 1016.7
20210121073911 10 256 0.0 0.0 0.00 0.00 0.00 42 1016.9
20210121073413 10 256 0.0 0.0 0.00 0.00 0.00 43 1016.9
20210121072909 10 256 0.0 0.0 0.00 0.00 0.00 43 1016.9
20210121072402 10 256 0.0 0.0 0.00 0.00 0.00 43 1016.9
20210121071905 10 256 0.0 3.2 0.00 0.00 0.00 43 1016.9
20210121071400 10 256 0.0 3.2 0.00 0.00 0.00 42 1016.9
20210121070900 11 256 0.0 4.8 0.00 0.00 0.00 42 1017.0
20210121070356 11 256 0.0 4.8 0.00 0.00 0.00 42 1017.0
20210121065853 11 256 0.0 0.0 0.00 0.00 0.00 42 1017.0
20210121065355 11 256 0.0 0.0 0.00 0.00 0.00 41 1017.0
20210121064849 11 256 0.0 8.0 0.00 0.00 0.00 41 1017.0
20210121064355 12 256 1.6 8.0 0.00 0.00 0.00 40 1017.0